This is the latest recevied weather packets stored in our database for station/object N1YZ. If no packets are shown the sender has not sent any weather packets the latest 10 day(s).
| Time | Temp. | Humidity | Pressure | Rain* | Wind** | Luminosity | Snow |
|---|---|---|---|---|---|---|---|
| 1777986846 | 15.56° C | 86% | 1034.3 hPa | 0 mm | - | 58 W/m² | - |
| 1777986544 | 15° C | 88% | 1034.3 hPa | 0 mm | - | 38 W/m² | - |
| 1777986242 | 15° C | 89% | 1033.9 hPa | 0 mm | - | 30 W/m² | - |
| 1777985938 | 14.44° C | 89% | 1034.1 hPa | 0 mm | - | 30 W/m² | - |
| 1777985637 | 14.44° C | 90% | 1034 hPa | 0 mm | - | 29 W/m² | - |
| 1777985332 | 13.89° C | 90% | 1034.1 hPa | 0 mm | - | 29 W/m² | - |
| 1777985029 | 13.89° C | 91% | 1033.8 hPa | 0 mm | - | 26 W/m² | - |
| 1777984725 | 13.33° C | 92% | 1033.8 hPa | 0 mm | - | 25 W/m² | - |
| 1777984422 | 13.33° C | 92% | 1033.6 hPa | 0 mm | - | 21 W/m² | - |
| 1777984117 | 12.78° C | 93% | 1033.7 hPa | 0 mm | - | 18 W/m² | - |
| 1777983810 | 12.78° C | 93% | 1033.7 hPa | 0 mm | - | 17 W/m² | - |
| 1777983506 | 12.22° C | 93% | 1033.6 hPa | 0 mm | - | 16 W/m² | - |
| 1777983204 | 12.22° C | 93% | 1033.5 hPa | 0 mm | - | 16 W/m² | - |
| 1777982899 | 12.22° C | 93% | 1033.5 hPa | 0 mm | - | 15 W/m² | - |
| 1777982596 | 12.22° C | 93% | 1033.6 hPa | 0 mm | - | 13 W/m² | - |
| 1777982294 | 12.22° C | 93% | 1033.4 hPa | 0 mm | - | 12 W/m² | - |
| 1777981992 | 11.67° C | 94% | 1033.4 hPa | 0 mm | - | 12 W/m² | - |
| 1777981690 | 11.67° C | 93% | 1033.2 hPa | 0 mm | - | 11 W/m² | - |
| 1777981386 | 11.67° C | 93% | 1033.1 hPa | 0 mm | - | 11 W/m² | - |
| 1777981083 | 11.67° C | 93% | 1033.3 hPa | 0 mm | - | 9 W/m² | - |
| 1777980779 | 11.67° C | 93% | 1033.2 hPa | 0 mm | - | 8 W/m² | - |
| 1777980474 | 11.67° C | 93% | 1033 hPa | 0 mm | - | 7 W/m² | - |
| 1777980172 | 11.67° C | 93% | 1033 hPa | 0 mm | - | 6 W/m² | - |
| 1777979873 | 11.67° C | 92% | 1033 hPa | 0 mm | - | 5 W/m² | - |
| 1777979569 | 11.67° C | 92% | 1032.8 hPa | 0 mm | - | 3 W/m² | - |
* Rain latest hour (hover to see other rain measurements)
** Current wind speed in m/s (hover to see current wind gust speed)